GW4396 Weather Reports


time (UTC)temp
C
wind
direction
speed
KPH
gust
KPH
rain 1hr
cm
rain 24hr
cm
rain mn
cm
humidity
%
barometer
mb
20260507040947 27 90 3.2 4.8 0.00 0.00 0.00 70 1007.3
20260507040443 27 69 6.4 9.7 0.00 0.00 0.00 70 1007.3
20260507035939 27 58 3.2 3.2 0.00 0.00 0.00 71 1007.4
20260507035436 27 89 1.6 1.6 0.00 0.00 0.00 71 1007.0
20260507034933 27 91 1.6 3.2 0.00 0.00 0.00 71 1007.2
20260507034430 27 91 1.6 3.2 0.00 0.00 0.00 71 1007.0
20260507033928 27 94 4.8 4.8 0.00 0.00 0.00 72 1007.0
20260507033425 27 95 9.7 12.9 0.00 0.00 0.00 71 1007.2
20260507032922 27 110 3.2 4.8 0.00 0.00 0.00 71 1007.1
20260507032419 27 122 6.4 8.0 0.00 0.00 0.00 71 1007.4
20260507031915 27 87 3.2 3.2 0.00 0.00 0.00 71 1007.4
20260507031412 27 77 3.2 8.0 0.00 0.00 0.00 70 1007.4
20260507030908 27 74 6.4 12.9 0.00 0.00 0.00 69 1007.3
20260507030406 27 227 9.7 12.9 0.00 0.00 0.00 69 1007.3
20260507025903 27 88 8.0 11.3 0.00 0.00 0.00 69 1007.5
20260507025400 27 134 4.8 8.0 0.00 0.00 0.00 70 1007.6
20260507024858 27 219 4.8 8.0 0.00 0.00 0.00 70 1007.4
20260507024355 27 132 6.4 9.7 0.00 0.00 0.00 71 1007.4
20260507023850 27 143 4.8 4.8 0.00 0.00 0.00 73 1007.4
20260507023348 27 78 4.8 4.8 0.00 0.00 0.00 73 1007.5
20260507022845 27 73 9.7 20.9 0.00 0.00 0.00 73 1007.5
20260507022341 27 82 3.2 4.8 0.00 0.00 0.00 72 1007.6
20260507021837 27 100 4.8 4.8 0.00 0.00 0.00 72 1007.8
20260507021333 27 95 9.7 12.9 0.00 0.00 0.00 73 1007.5
20260507020831 27 266 6.4 11.3 0.00 0.00 0.00 73 1007.4
20260507020327 27 97 9.7 14.5 0.00 0.00 0.00 73 1007.6
20260507015824 27 97 14.5 20.9 0.00 0.00 0.00 72 1007.8
20260507015322 27 88 8.0 9.7 0.00 0.00 0.00 73 1007.9
20260507014819 27 91 1.6 1.6 0.00 0.00 0.00 74 1007.9
20260507014315 27 121 11.3 12.9 0.00 0.00 0.00 74 1008.0
20260507013806 27 120 8.0 9.7 0.00 0.00 0.00 74 1008.0
20260507013303 27 99 6.4 8.0 0.00 0.00 0.00 74 1008.0
20260507012800 27 70 8.0 12.9 0.00 0.00 0.00 74 1008.1
20260507012256 27 96 4.8 8.0 0.00 0.00 0.00 74 1007.9
20260507011754 27 112 8.0 9.7 0.00 0.00 0.00 73 1008.1
20260507011250 27 139 3.2 8.0 0.00 0.00 0.00 73 1008.1
20260507010750 27 97 6.4 9.7 0.00 0.00 0.00 74 1008.2
20260507010246 27 98 8.0 9.7 0.00 0.00 0.00 74 1008.1
20260507005744 27 92 4.8 8.0 0.00 0.00 0.00 74 1008.0
20260507005240 27 101 4.8 8.0 0.00 0.00 0.00 75 1008.3
20260507004736 27 92 9.7 12.9 0.00 0.00 0.00 75 1008.3
20260507004235 27 88 4.8 4.8 0.00 0.00 0.00 75 1008.3
20260507003730 27 88 8.0 11.3 0.00 0.00 0.00 75 1008.5
20260507003226 27 113 4.8 8.0 0.00 0.00 0.00 76 1008.2
20260507002722 27 87 6.4 9.7 0.00 0.00 0.00 75 1008.2
20260507002218 27 98 8.0 12.9 0.00 0.00 0.00 75 1008.3
20260507001715 27 94 8.0 9.7 0.00 0.00 0.00 75 1008.4
20260507001212 27 88 8.0 9.7 0.00 0.00 0.00 76 1008.3
20260507000708 27 108 4.8 8.0 0.00 0.00 0.00 76 1008.4
20260507000205 27 97 4.8 8.0 0.00 0.00 0.00 77 1008.5
20260506235702 27 94 3.2 4.8 0.00 0.00 0.00 77 1008.5
20260506235157 27 128 8.0 9.7 0.00 0.00 0.00 78 1008.4
20260506234654 26 120 6.4 8.0 0.00 0.00 0.00 78 1008.3
20260506234151 26 114 4.8 8.0 0.00 0.00 0.00 78 1008.4
20260506233648 26 102 6.4 8.0 0.00 0.00 0.00 78 1008.6
20260506233145 26 123 4.8 9.7 0.00 0.00 0.00 79 1008.6
20260506232641 26 68 8.0 11.3 0.00 0.00 0.00 79 1008.4
20260506232137 27 59 9.7 12.9 0.00 0.00 0.00 79 1008.7
20260506231634 27 100 8.0 11.3 0.00 0.00 0.00 79 1008.7
20260506231132 27 95 6.4 9.7 0.00 0.00 0.00 78 1008.6
20260506230629 27 82 4.8 4.8 0.00 0.00 0.00 77 1008.7
20260506230126 27 99 1.6 3.2 0.00 0.00 0.00 76 1008.9
20260506225622 27 86 4.8 4.8 0.00 0.00 0.00 75 1008.5
20260506225119 28 85 4.8 4.8 0.00 0.00 0.00 75 1008.8
20260506224616 28 106 6.4 9.7 0.00 0.00 0.00 74 1008.4
20260506224112 28 121 3.2 4.8 0.00 0.00 0.00 73 1008.6
20260506223608 28 85 4.8 8.0 0.00 0.00 0.00 73 1009.0
20260506223104 28 89 4.8 4.8 0.00 0.00 0.00 74 1008.7
20260506222601 28 87 0.0 0.0 0.00 0.00 0.00 74 1008.8
20260506222058 28 95 4.8 4.8 0.00 0.00 0.00 74 1008.6
20260506221555 28 105 1.6 3.2 0.00 0.00 0.00 74 1008.6
20260506221053 28 85 4.8 8.0 0.00 0.00 0.00 74 1008.8
20260506220549 28 105 3.2 3.2 0.00 0.00 0.00 73 1008.6
20260506220045 28 98 0.0 0.0 0.00 0.00 0.00 74 1008.7
20260506215542 28 111 1.6 1.6 0.00 0.00 0.00 74 1008.4
20260506215038 28 97 3.2 3.2 0.00 0.00 0.00 73 1008.6
20260506214535 28 101 0.0 1.6 0.00 0.00 0.00 73 1008.6
20260506214032 28 91 4.8 8.0 0.00 0.00 0.00 74 1008.8
20260506213530 28 91 0.0 1.6 0.00 0.00 0.00 73 1008.8
20260506213027 28 29 1.6 3.2 0.00 0.00 0.00 73 1008.5
20260506212523 28 106 1.6 1.6 0.00 0.00 0.00 73 1008.8
20260506212018 28 89 0.0 1.6 0.00 0.00 0.00 73 1008.8
20260506211514 28 88 3.2 3.2 0.00 0.00 0.00 73 1008.7
20260506211013 28 131 0.0 0.0 0.00 0.00 0.00 73 1008.9
20260506210509 28 63 1.6 3.2 0.00 0.00 0.00 73 1008.8
20260506210006 28 113 0.0 0.0 0.00 0.00 0.00 73 1009.0
20260506205502 28 92 0.0 0.0 0.00 0.00 0.00 72 1008.9
20260506204957 29 88 0.0 0.0 0.00 0.00 0.00 72 1009.0
20260506204456 29 91 0.0 0.0 0.00 0.00 0.00 70 1009.2
20260506203952 30 85 0.0 0.0 0.00 0.00 0.00 70 1008.9
20260506203450 30 87 0.0 0.0 0.00 0.00 0.00 69 1009.0
20260506202946 30 96 0.0 0.0 0.00 0.00 0.00 69 1009.1
20260506202444 30 67 1.6 3.2 0.00 0.00 0.00 68 1009.2
20260506201940 30 102 0.0 0.0 0.00 0.00 0.00 70 1009.0
20260506201438 30 95 0.0 0.0 0.00 0.00 0.00 71 1009.0
20260506200934 31 90 1.6 3.2 0.00 0.00 0.00 68 1008.9
20260506200430 31 89 0.0 0.0 0.00 0.00 0.00 68 1008.8
20260506195927 31 229 1.6 1.6 0.00 0.00 0.00 65 1009.2
20260506195424 31 10 3.2 4.8 0.00 0.00 0.00 64 1009.5
20260506194921 31 17 6.4 9.7 0.00 0.00 0.00 63 1009.1
20260506194418 31 65 3.2 4.8 0.00 0.00 0.00 64 1009.1
20260506193915 31 102 1.6 3.2 0.00 0.00 0.00 63 1009.2
20260506193412 32 97 0.0 1.6 0.00 0.00 0.00 65 1009.2
20260506192908 32 304 1.6 1.6 0.00 0.00 0.00 62 1009.3
20260506192405 33 77 0.0 0.0 0.00 0.00 0.00 62 1009.5
20260506191902 33 96 1.6 1.6 0.00 0.00 0.00 62 1009.5
20260506191358 34 69 1.6 3.2 0.00 0.00 0.00 59 1009.2
20260506190855 33 9 3.2 8.0 0.00 0.00 0.00 59 1009.3
20260506190352 34 93 1.6 3.2 0.00 0.00 0.00 59 1009.6
20260506185849 33 315 8.0 16.1 0.00 0.00 0.00 60 1009.5
20260506185346 33 90 3.2 3.2 0.00 0.00 0.00 62 1009.7
20260506184843 33 137 3.2 3.2 0.00 0.00 0.00 59 1009.9
20260506184340 33 102 3.2 8.0 0.00 0.00 0.00 61 1009.8
20260506183837 33 108 3.2 4.8 0.00 0.00 0.00 61 1009.8
20260506183332 33 276 1.6 4.8 0.00 0.00 0.00 59 1010.0
20260506182830 33 85 3.2 4.8 0.00 0.00 0.00 59 1009.9
20260506182327 33 122 4.8 8.0 0.00 0.00 0.00 59 1010.2
20260506181824 33 44 1.6 3.2 0.00 0.00 0.00 60 1009.8
20260506181322 33 331 3.2 4.8 0.00 0.00 0.00 58 1010.1
20260506180819 33 331 8.0 11.3 0.00 0.00 0.00 58 1009.9
20260506180315 33 119 6.4 12.9 0.00 0.00 0.00 58 1010.0
20260506175811 33 357 9.7 14.5 0.00 0.00 0.00 58 1010.3
20260506175308 33 78 8.0 11.3 0.00 0.00 0.00 59 1010.1
20260506174806 33 97 4.8 9.7 0.00 0.00 0.00 59 1010.4
20260506174303 33 90 4.8 9.7 0.00 0.00 0.00 60 1010.5
20260506173800 33 119 4.8 4.8 0.00 0.00 0.00 61 1010.6
20260506173257 33 31 3.2 9.7 0.00 0.00 0.00 59 1010.4
20260506172754 33 59 4.8 4.8 0.00 0.00 0.00 60 1010.9
20260506172250 33 158 3.2 3.2 0.00 0.00 0.00 59 1010.9
20260506171748 33 81 0.0 0.0 0.00 0.00 0.00 62 1011.0
20260506171245 33 330 9.7 14.5 0.00 0.00 0.00 59 1010.7
20260506170743 33 112 3.2 4.8 0.00 0.00 0.00 60 1010.8
20260506170239 33 79 0.0 1.6 0.00 0.00 0.00 58 1011.1
20260506165738 33 172 6.4 11.3 0.00 0.00 0.00 60 1011.3
20260506165234 33 12 4.8 9.7 0.00 0.00 0.00 60 1011.4
20260506164731 32 103 4.8 8.0 0.00 0.00 0.00 61 1011.2
20260506164228 32 80 6.4 9.7 0.00 0.00 0.00 61 1011.7
20260506163725 32 55 4.8 8.0 0.00 0.00 0.00 62 1011.6
20260506163220 33 61 3.2 4.8 0.00 0.00 0.00 62 1011.8
20260506162716 33 285 3.2 4.8 0.00 0.00 0.00 61 1011.9
20260506162214 32 77 1.6 1.6 0.00 0.00 0.00 63 1012.0
20260506161711 32 71 4.8 8.0 0.00 0.00 0.00 62 1012.0
20260506161208 32 88 1.6 3.2 0.00 0.00 0.00 64 1012.1
20260506160706 32 49 1.6 1.6 0.00 0.00 0.00 63 1012.3
20260506160202 33 109 6.4 9.7 0.00 0.00 0.00 63 1012.3
20260506155700 32 85 3.2 3.2 0.00 0.00 0.00 62 1012.5
20260506155157 33 84 3.2 4.8 0.00 0.00 0.00 61 1012.5
20260506153259 32 348 1.6 1.6 0.00 0.00 0.00 64 1013.0
20260506152756 33 314 4.8 8.0 0.00 0.00 0.00 62 1013.0
20260506152253 31 69 3.2 4.8 0.00 0.00 0.00 65 1013.0
20260506151752 32 279 3.2 3.2 0.00 0.00 0.00 67 1012.8
20260506151249 31 312 1.6 3.2 0.00 0.00 0.00 65 1013.0
20260506150745 32 54 0.0 1.6 0.00 0.00 0.00 66 1013.5
20260506150243 32 92 3.2 4.8 0.00 0.00 0.00 66 1013.2
20260506145739 32 310 4.8 9.7 0.00 0.00 0.00 64 1013.3
20260506145235 31 306 3.2 4.8 0.00 0.00 0.00 65 1013.4
20260506144733 31 104 4.8 8.0 0.00 0.00 0.00 66 1013.3
20260506144230 31 79 6.4 8.0 0.00 0.00 0.00 66 1013.6
20260506143727 31 142 4.8 8.0 0.00 0.00 0.00 66 1013.6
20260506143225 31 85 9.7 12.9 0.00 0.00 0.00 65 1013.7
20260506142724 31 83 8.0 9.7 0.00 0.00 0.00 68 1014.0
20260506142221 30 99 8.0 9.7 0.00 0.00 0.00 68 1013.8
20260506141719 30 133 4.8 9.7 0.00 0.00 0.00 69 1013.9
20260506141217 30 5 3.2 4.8 0.00 0.00 0.00 69 1014.2
20260506140714 30 103 1.6 3.2 0.00 0.00 0.00 72 1014.1
20260506140211 29 82 3.2 3.2 0.00 0.00 0.00 72 1014.0
20260506135708 29 102 4.8 8.0 0.00 0.00 0.00 73 1014.0
20260506135204 28 89 6.4 9.7 0.00 0.00 0.00 74 1014.4
20260506134701 28 81 4.8 8.0 0.00 0.00 0.00 74 1014.4
20260506134157 28 113 9.7 12.9 0.00 0.00 0.00 74 1014.5
20260506133654 28 86 6.4 8.0 0.00 0.00 0.00 75 1014.5
20260506133151 27 107 14.5 20.9 0.00 0.00 0.00 76 1014.7
20260506132648 27 101 3.2 4.8 0.00 0.00 0.00 77 1014.8
20260506132145 27 94 11.3 14.5 0.00 0.00 0.00 76 1014.6
20260506131643 27 106 3.2 9.7 0.00 0.00 0.00 77 1014.6
20260506131139 26 106 8.0 11.3 0.00 0.00 0.00 78 1014.7
20260506130636 26 105 6.4 8.0 0.00 0.00 0.00 78 1014.7
20260506130133 26 110 4.8 8.0 0.00 0.00 0.00 79 1014.9
20260506125631 26 76 4.8 4.8 0.00 0.00 0.00 79 1014.5
20260506125129 26 110 6.4 9.7 0.00 0.00 0.00 79 1015.0
20260506124626 26 83 4.8 4.8 0.00 0.00 0.00 78 1014.8
20260506124124 26 107 6.4 9.7 0.00 0.00 0.00 78 1014.9
20260506123621 26 95 4.8 4.8 0.00 0.00 0.00 77 1014.9
20260506123120 26 73 9.7 12.9 0.00 0.00 0.00 77 1014.9
20260506122616 26 120 4.8 9.7 0.00 0.00 0.00 77 1014.7
20260506122114 26 84 9.7 9.7 0.00 0.00 0.00 79 1014.9
20260506121612 25 110 4.8 8.0 0.00 0.00 0.00 80 1014.7
20260506121108 25 94 6.4 8.0 0.00 0.00 0.00 81 1014.8
20260506120606 25 107 4.8 4.8 0.00 0.00 0.00 82 1014.6
20260506115601 25 122 6.4 8.0 0.00 0.00 0.00 82 1014.7
20260506115059 24 77 4.8 4.8 0.00 0.00 0.00 83 1015.0
20260506114556 24 88 6.4 8.0 0.00 0.00 0.00 83 1014.9
20260506114054 24 83 4.8 8.0 0.00 0.00 0.00 83 1014.8
20260506113552 24 101 4.8 11.3 0.00 0.00 0.00 83 1014.9
20260506113049 24 90 4.8 8.0 0.00 0.00 0.00 82 1014.8
20260506112545 24 86 6.4 9.7 0.00 0.00 0.00 82 1014.7
20260506112043 25 92 4.8 8.0 0.00 0.00 0.00 82 1014.5
20260506111541 24 87 3.2 4.8 0.00 0.00 0.00 82 1014.7
20260506111038 24 117 1.6 3.2 0.00 0.00 0.00 82 1015.0
20260506110535 24 83 3.2 4.8 0.00 0.00 0.00 83 1014.7
20260506110033 23 96 3.2 4.8 0.00 0.00 0.00 83 1014.7
20260506105528 24 113 3.2 3.2 0.00 0.00 0.00 84 1014.6
20260506105026 23 94 3.2 4.8 0.00 0.00 0.00 83 1014.8
20260506104524 23 105 0.0 1.6 0.00 0.00 0.00 85 1014.5
20260506104022 23 105 0.0 0.0 0.00 0.00 0.00 86 1014.3
20260506103519 23 110 0.0 0.0 0.00 0.00 0.00 87 1014.4
20260506103015 23 95 0.0 1.6 0.00 0.00 0.00 86 1014.3
20260506102514 23 93 3.2 3.2 0.00 0.00 0.00 86 1014.1
20260506102011 23 101 0.0 1.6 0.00 0.00 0.00 87 1014.2
20260506101507 23 103 0.0 0.0 0.00 0.00 0.00 86 1014.0
20260506101004 23 96 3.2 3.2 0.00 0.00 0.00 86 1014.1
20260506100503 23 72 4.8 8.0 0.00 0.00 0.00 86 1014.0
20260506100000 23 100 4.8 4.8 0.00 0.00 0.00 86 1013.9
20260506095459 23 91 6.4 8.0 0.00 0.00 0.00 86 1013.8
20260506094954 23 89 6.4 8.0 0.00 0.00 0.00 86 1013.7
20260506094453 23 103 4.8 4.8 0.00 0.00 0.00 86 1013.5
20260506093950 23 85 6.4 9.7 0.00 0.00 0.00 86 1013.5
20260506093448 23 114 6.4 8.0 0.00 0.00 0.00 86 1013.4
20260506092946 23 91 8.0 11.3 0.00 0.00 0.00 87 1013.4
20260506092443 23 92 4.8 8.0 0.00 0.00 0.00 87 1013.3
20260506091940 23 95 4.8 8.0 0.00 0.00 0.00 87 1013.2
20260506091438 23 86 1.6 3.2 0.00 0.00 0.00 87 1013.0
20260506090935 23 91 3.2 3.2 0.00 0.00 0.00 86 1013.1
20260506090433 23 76 3.2 3.2 0.00 0.00 0.00 86 1013.1
20260506085929 23 70 8.0 14.5 0.00 0.00 0.00 86 1012.8
20260506085426 23 112 3.2 3.2 0.00 0.00 0.00 86 1012.9
20260506084922 23 97 8.0 11.3 0.00 0.00 0.00 86 1012.7
20260506084419 23 64 3.2 3.2 0.00 0.00 0.00 86 1012.7
20260506083910 23 94 4.8 4.8 0.00 0.00 0.00 86 1012.4
20260506083407 23 120 4.8 4.8 0.00 0.00 0.00 86 1012.7
20260506082905 23 97 4.8 4.8 0.00 0.00 0.00 86 1012.5
20260506082402 23 80 4.8 8.0 0.00 0.00 0.00 86 1012.4
20260506081857 23 93 8.0 9.7 0.00 0.00 0.00 86 1012.6
20260506081356 23 105 8.0 9.7 0.00 0.00 0.00 86 1012.4
20260506080853 23 95 6.4 9.7 0.00 0.00 0.00 87 1012.4
20260506080350 23 55 4.8 4.8 0.00 0.00 0.00 87 1012.4
20260506073333 23 98 6.4 8.0 0.00 0.00 0.00 86 1012.3
20260506072830 23 94 8.0 9.7 0.00 0.00 0.00 86 1012.7
20260506072328 23 96 4.8 4.8 0.00 0.00 0.00 86 1012.6
20260506071826 23 99 4.8 8.0 0.00 0.00 0.00 85 1012.6
20260506071323 23 102 6.4 9.7 0.00 0.00 0.00 85 1012.7
20260506070819 23 90 6.4 8.0 0.00 0.00 0.00 84 1012.6
20260506070316 23 102 6.4 8.0 0.00 0.00 0.00 84 1012.5
20260506062253 24 100 8.0 9.7 0.00 0.00 0.00 83 1012.6
20260506061749 24 111 8.0 8.0 0.00 0.00 0.00 84 1012.5
20260506061247 24 93 8.0 11.3 0.00 0.00 0.00 83 1012.6
20260506060745 24 90 3.2 3.2 0.00 0.00 0.00 83 1012.9
20260506060242 24 110 3.2 3.2 0.00 0.00 0.00 83 1012.7
20260506051214 24 110 4.8 4.8 0.00 0.00 0.00 84 1012.7
20260506050712 24 89 6.4 8.0 0.00 0.00 0.00 84 1012.9
20260506050209 24 88 6.4 8.0 0.00 0.00 0.00 84 1012.8
20260506044700 24 105 4.8 4.8 0.00 0.00 0.00 85 1012.6
20260506044157 24 87 3.2 4.8 0.00 0.00 0.00 85 1012.8
20260506043654 24 98 6.4 8.0 0.00 0.00 0.00 86 1012.6
20260506043152 24 108 4.8 4.8 0.00 0.00 0.00 86 1012.7
20260506042651 24 75 4.8 4.8 0.00 0.00 0.00 86 1012.9
20260506042148 24 83 4.8 8.0 0.00 0.00 0.00 86 1012.8
20260506041652 24 104 4.8 4.8 0.00 0.00 0.00 86 1012.7